Regional Weather Roundup
Issued by NWS

Home | Current Version | Previous Version | Text Only | Print | Product List | Glossary On
Versions: 1 2 3 4 5 6 7 8 9 10 11 12 13 14 15 16 17 18 19 20 21 22 23 24 25 26 27
000
ASUS45 KSLC 302110
RWRUT

UTAH REGIONAL WEATHER ROUNDUP
NATIONAL WEATHER SERVICE SALT LAKE CITY UT
300 PM MDT MON MAY 30 2016

UTZ001>011-023>025-302200-

NORTHERN UTAH

CITY           SKY/WX    TMP DP  RH WIND       PRES   REMARKS
BRIGHAM CITY     N/A     71  40  31 W6        30.09F
HILL AFB       SUNNY     72  41  32 VRB2      30.10F
LOGAN          MOSUNNY   73  43  33 NW6G20    30.08F
OGDEN          SUNNY     73  40  30 VRB5      30.09F
PROVO AIRPORT  MOSUNNY   75  41  29 W10       30.07F
SALT LAKE CITY MOSUNNY   77  41  27 N14G22    30.07F
VERNAL         CLOUDY    72  38  29 CALM      30.06F
WENDOVER       MOSUNNY   75  41  29 SE8       30.08F
HEBER CITY     MOSUNNY   75  23  14 W8        30.09S
WEST JORDAN    SUNNY     73  41  31 NW15G21   30.09F

$$

UTZ012>022-026-027-302200-

SOUTHERN/CENTRAL UTAH

CITY           SKY/WX    TMP DP  RH WIND       PRES   REMARKS
BLANDING       MOSUNNY   77  21  12 S10G16    30.13S
BRYCE CANYON   CLOUDY    60  28  29 E9        30.22R
CEDAR CITY     MOSUNNY   78  29  16 NW10      30.06F
DELTA          MOSUNNY   79  27  14 N13G20    30.05F
HANKSVILLE     SUNNY     84  28  13 CALM      29.98F
MILFORD        SUNNY     81  28  14 N12G21    30.05F
MOAB/CYNLANDS  SUNNY     82  25  12 W7G18     29.96F
PRICE          SUNNY     79  21  11 W15       30.06F
ST GEORGE      PTCLDY    88  28  11 N3        29.93F

$$

REGIONAL REPORTS     COLORADO/ARIZONA

CITY           SKY/WX    TMP DP  RH WIND       PRES   REMARKS
CRAIG, CO      MOSUNNY   68  37  32 NW14      30.09F
GRAND JUNCTION CLOUDY    79  32  18 NW20G30   29.98F
RIFLE          CLOUDY    72  36  26 NW16      30.02S
MONTROSE       CLOUDY    72  34  24 NW17      30.06S
CORTEZ         SUNNY     79  18  10 SW12G18   30.05F
PAGE, AZ       PTSUNNY   85  24  11 N12       29.95F
GRAND CANYON   PTSUNNY   72  23  16 SE8       30.13F
KINGMAN        MOSUNNY   87  18   8 CALM      29.95F
FLAGSTAFF      PTSUNNY   70  19  14 SE10      30.13F

$$

REGIONAL REPORTS    NEVADA/IDAHO/WYOMING

CITY           SKY/WX    TMP DP  RH WIND       PRES   REMARKS
LAS VEGAS, NV  MOSUNNY   92  25   9 S3        29.84F
ELY            SUNNY     74  28  18 NW10G18   30.15F
ELKO           SUNNY     75  34  22 SW7       30.12F
POCATELLO, ID  CLOUDY    72  29  20 SW22G29   30.11F
BURLEY         MOSUNNY   70  30  22 W17G25    30.11F
EVANSTON, WY   MOSUNNY   63  33  32 W8G28     30.18F
ROCK SPRINGS   MOSUNNY   68  26  20 W22G31    30.11F
KEMMERER         N/A     63  30  29 W16G32    30.18S

$$




USA.gov is the U.S. government's official web portal to all federal, state and local government web resources and services.